Time,TemperatureF,DewpointF,PressureIn,WindDirection,WindDirectionDegrees,WindSpeedMPH,WindSpeedGustMPH,Humidity,HourlyPrecipIn,Conditions,Clouds,dailyrainin,SoftwareType,DateUTC
2013-06-22 00:00:00,78.8,31.7,29.72,SSW,194,4.0,4.0,18,0.00,,,0.00,Wunderground v.1.15,2013-06-22 07:00:00,
2013-06-22 00:05:00,78.8,31.7,29.72,SSW,194,5.0,5.0,18,0.00,,,0.00,Wunderground v.1.15,2013-06-22 07:05:00,
2013-06-22 00:15:00,78.6,32.9,29.72,South,191,4.0,4.0,19,0.00,,,0.00,Wunderground v.1.15,2013-06-22 07:15:00,
2013-06-22 00:25:00,78.1,32.5,29.71,South,188,4.0,4.0,19,0.00,,,0.00,Wunderground v.1.15,2013-06-22 07:25:00,
2013-06-22 00:30:00,77.7,33.4,29.71,South,173,5.0,7.0,20,0.00,,,0.00,Wunderground v.1.15,2013-06-22 07:30:00,
2013-06-22 00:35:00,77.9,32.3,29.71,South,175,6.0,7.0,19,0.00,,,0.00,Wunderground v.1.15,2013-06-22 07:35:00,
2013-06-22 00:40:00,78.3,32.6,29.71,SSE,165,6.0,7.0,19,0.00,,,0.00,Wunderground v.1.15,2013-06-22 07:40:00,
2013-06-22 00:45:00,78.5,31.4,29.71,South,190,6.0,7.0,18,0.00,,,0.00,Wunderground v.1.15,2013-06-22 07:45:00,
2013-06-22 00:50:00,78.3,32.6,29.71,SSE,167,5.0,9.0,19,0.00,,,0.00,Wunderground v.1.15,2013-06-22 07:50:00,
2013-06-22 01:00:00,78.3,31.3,29.70,South,169,6.0,6.0,18,0.00,,,0.00,Wunderground v.1.15,2013-06-22 08:00:00,
2013-06-22 01:05:00,78.3,31.3,29.70,South,171,6.0,6.0,18,0.00,,,0.00,Wunderground v.1.15,2013-06-22 08:05:00,
2013-06-22 01:15:00,77.9,32.3,29.70,South,182,6.0,9.0,19,0.00,,,0.00,Wunderground v.1.15,2013-06-22 08:15:00,
2013-06-22 01:20:00,77.6,33.3,29.70,SSW,198,6.0,6.0,20,0.00,,,0.00,Wunderground v.1.15,2013-06-22 08:20:00,
2013-06-22 01:30:00,77.2,33.0,29.70,SW,221,7.0,11.0,20,0.00,,,0.00,Wunderground v.1.15,2013-06-22 08:30:00,
2013-06-22 01:35:00,76.8,32.7,29.70,SSW,192,7.0,11.0,20,0.00,,,0.00,Wunderground v.1.15,2013-06-22 08:35:00,
2013-06-22 01:40:00,76.7,32.6,29.70,SSW,202,7.0,10.0,20,0.00,,,0.00,Wunderground v.1.15,2013-06-22 08:40:00,
2013-06-22 01:45:00,76.8,32.7,29.70,South,188,7.0,10.0,20,0.00,,,0.00,Wunderground v.1.15,2013-06-22 08:45:00,
2013-06-22 01:50:00,76.8,32.7,29.70,SSW,196,7.0,7.0,20,0.00,,,0.00,Wunderground v.1.15,2013-06-22 08:50:00,
2013-06-22 01:55:00,76.8,32.7,29.71,SSW,194,6.0,9.0,20,0.00,,,0.00,Wunderground v.1.15,2013-06-22 08:55:00,
2013-06-22 02:05:00,76.7,32.6,29.71,SSW,192,7.0,9.0,20,0.00,,,0.00,Wunderground v.1.15,2013-06-22 09:05:00,
2013-06-22 02:15:00,76.5,32.4,29.71,South,185,6.0,7.0,20,0.00,,,0.00,Wunderground v.1.15,2013-06-22 09:15:00,
2013-06-22 02:20:00,76.1,32.1,29.71,South,173,6.0,7.0,20,0.00,,,0.00,Wunderground v.1.15,2013-06-22 09:20:00,
2013-06-22 02:25:00,76.5,32.4,29.71,South,182,6.0,7.0,20,0.00,,,0.00,Wunderground v.1.15,2013-06-22 09:25:00,
2013-06-22 02:35:00,76.5,31.1,29.71,SW,218,5.0,8.0,19,0.00,,,0.00,Wunderground v.1.15,2013-06-22 09:35:00,
2013-06-22 02:45:00,76.3,31.0,29.71,South,188,5.0,7.0,19,0.00,,,0.00,Wunderground v.1.15,2013-06-22 09:45:00,
2013-06-22 02:50:00,76.3,29.7,29.71,South,181,5.0,7.0,18,0.00,,,0.00,Wunderground v.1.15,2013-06-22 09:50:00,
2013-06-22 02:55:00,76.5,26.9,29.71,SSE,154,5.0,7.0,16,0.00,,,0.00,Wunderground v.1.15,2013-06-22 09:55:00,
2013-06-22 03:00:00,76.7,28.6,29.71,SSE,155,4.0,4.0,17,0.00,,,0.00,Wunderground v.1.15,2013-06-22 10:00:00,
2013-06-22 03:05:00,76.3,28.3,29.71,SSE,155,3.0,4.0,17,0.00,,,0.00,Wunderground v.1.15,2013-06-22 10:05:00,
2013-06-22 09:26:00,83.0,20.8,29.78,SE,141,11.0,11.0,10,0.00,,,0.00,Wunderground v.1.15,2013-06-22 16:26:00,
2013-06-22 09:35:00,84.0,21.5,29.78,South,177,8.0,8.0,10,0.00,,,0.00,Wunderground v.1.15,2013-06-22 16:35:00,
2013-06-22 09:45:00,84.1,21.6,29.78,SE,146,6.0,9.0,10,0.00,,,0.00,Wunderground v.1.15,2013-06-22 16:45:00,
2013-06-22 09:50:00,84.3,21.8,29.77,SSW,199,7.0,9.0,10,0.00,,,0.00,Wunderground v.1.15,2013-06-22 16:50:00,
2013-06-22 09:55:00,84.3,19.3,29.78,SSE,162,8.0,11.0,9,0.00,,,0.00,Wunderground v.1.15,2013-06-22 16:55:00,
2013-06-22 10:00:00,84.9,19.7,29.77,South,173,9.0,9.0,9,0.00,,,0.00,Wunderground v.1.15,2013-06-22 17:00:00,
2013-06-22 10:05:00,84.3,21.8,29.78,SE,130,9.0,9.0,10,0.00,,,0.00,Wunderground v.1.15,2013-06-22 17:05:00,
2013-06-22 10:10:00,84.7,26.4,29.78,South,174,8.0,10.0,12,0.00,,,0.00,Wunderground v.1.15,2013-06-22 17:10:00,
2013-06-22 10:15:00,85.3,22.5,29.78,SSE,154,10.0,10.0,10,0.00,,,0.00,Wunderground v.1.15,2013-06-22 17:15:00,
2013-06-22 10:20:00,85.9,23.0,29.78,SSW,213,10.0,10.0,10,0.00,,,0.00,Wunderground v.1.15,2013-06-22 17:20:00,
2013-06-22 10:25:00,86.1,23.1,29.78,SE,137,8.0,10.0,10,0.00,,,0.00,Wunderground v.1.15,2013-06-22 17:25:00,
2013-06-22 10:30:00,86.3,23.3,29.77,SE,139,7.0,7.0,10,0.00,,,0.00,Wunderground v.1.15,2013-06-22 17:30:00,
2013-06-22 10:35:00,86.5,23.4,29.78,SSW,202,6.0,7.0,10,0.00,,,0.00,Wunderground v.1.15,2013-06-22 17:35:00,
2013-06-22 10:45:00,86.7,23.6,29.78,SE,132,7.0,12.0,10,0.00,,,0.00,Wunderground v.1.15,2013-06-22 17:45:00,
2013-06-22 10:50:00,87.2,21.5,29.77,SSE,168,9.0,9.0,9,0.00,,,0.00,Wunderground v.1.15,2013-06-22 17:50:00,
2013-06-22 10:55:00,87.6,21.8,29.78,SE,134,10.0,12.0,9,0.00,,,0.00,Wunderground v.1.15,2013-06-22 17:55:00,
2013-06-22 11:00:00,87.2,21.5,29.77,SSE,147,11.0,11.0,9,0.00,,,0.00,Wunderground v.1.15,2013-06-22 18:00:00,
2013-06-22 11:05:00,87.4,21.6,29.77,SSE,151,9.0,11.0,9,0.00,,,0.00,Wunderground v.1.15,2013-06-22 18:05:00,
2013-06-22 11:15:00,88.0,22.1,29.77,SSE,157,10.0,13.0,9,0.00,,,0.00,Wunderground v.1.15,2013-06-22 18:15:00,
2013-06-22 11:20:00,88.4,22.4,29.77,SSE,157,10.0,10.0,9,0.00,,,0.00,Wunderground v.1.15,2013-06-22 18:20:00,
2013-06-22 11:25:00,88.6,19.7,29.77,SSW,197,9.0,10.0,8,0.00,,,0.00,Wunderground v.1.15,2013-06-22 18:25:00,
2013-06-22 11:30:00,88.4,22.4,29.76,South,177,8.0,15.0,9,0.00,,,0.00,Wunderground v.1.15,2013-06-22 18:30:00,
2013-06-22 11:35:00,89.0,20.0,29.76,South,179,9.0,15.0,8,0.00,,,0.00,Wunderground v.1.15,2013-06-22 18:35:00,
2013-06-22 11:40:00,89.3,20.3,29.76,SSE,168,8.0,10.0,8,0.00,,,0.00,Wunderground v.1.15,2013-06-22 18:40:00,
2013-06-22 11:50:00,89.7,17.4,29.76,SE,130,9.0,12.0,7,0.00,,,0.00,Wunderground v.1.15,2013-06-22 18:50:00,
2013-06-22 11:55:00,89.5,17.3,29.75,SE,138,8.0,12.0,7,0.00,,,0.00,Wunderground v.1.15,2013-06-22 18:55:00,
2013-06-22 12:00:00,90.5,18.0,29.75,South,169,9.0,9.0,7,0.00,,,0.00,Wunderground v.1.15,2013-06-22 19:00:00,
2013-06-22 12:05:00,89.9,17.6,29.75,SE,144,9.0,10.0,7,0.00,,,0.00,Wunderground v.1.15,2013-06-22 19:05:00,
2013-06-22 12:15:00,90.3,17.9,29.75,ESE,115,12.0,13.0,7,0.00,,,0.00,Wunderground v.1.15,2013-06-22 19:15:00,
2013-06-22 12:25:00,91.6,18.8,29.74,SSE,152,12.0,13.0,7,0.00,,,0.00,Wunderground v.1.15,2013-06-22 19:25:00,
2013-06-22 12:30:00,91.6,18.8,29.75,SE,140,11.0,11.0,7,0.00,,,0.00,Wunderground v.1.15,2013-06-22 19:30:00,
2013-06-22 12:35:00,91.8,19.0,29.74,South,171,9.0,11.0,7,0.00,,,0.00,Wunderground v.1.15,2013-06-22 19:35:00,
2013-06-22 12:40:00,91.8,19.0,29.74,South,169,7.0,7.0,7,0.00,,,0.00,Wunderground v.1.15,2013-06-22 19:40:00,
2013-06-22 12:45:00,91.6,18.8,29.74,South,173,6.0,7.0,7,0.00,,,0.00,Wunderground v.1.15,2013-06-22 19:45:00,
2013-06-22 12:55:00,92.3,19.3,29.74,SSE,155,9.0,10.0,7,0.00,,,0.00,Wunderground v.1.15,2013-06-22 19:55:00,
2013-06-22 13:00:00,90.7,18.2,29.74,SW,233,11.0,11.0,7,0.00,,,0.00,Wunderground v.1.15,2013-06-22 20:00:00,
2013-06-22 13:05:00,91.2,18.5,29.73,SSW,201,11.0,11.0,7,0.00,,,0.00,Wunderground v.1.15,2013-06-22 20:05:00,
2013-06-22 13:15:00,92.7,19.6,29.73,West,261,9.0,14.0,7,0.00,,,0.00,Wunderground v.1.15,2013-06-22 20:15:00,
2013-06-22 13:20:00,92.3,19.3,29.73,SSE,166,8.0,9.0,7,0.00,,,0.00,Wunderground v.1.15,2013-06-22 20:20:00,
2013-06-22 13:30:00,91.6,18.8,29.73,WSW,242,9.0,9.0,7,0.00,,,0.00,Wunderground v.1.15,2013-06-22 20:30:00,
2013-06-22 13:35:00,91.8,19.0,29.73,South,172,8.0,11.0,7,0.00,,,0.00,Wunderground v.1.15,2013-06-22 20:35:00,
2013-06-22 13:40:00,92.3,19.3,29.72,South,174,8.0,10.0,7,0.00,,,0.00,Wunderground v.1.15,2013-06-22 20:40:00,
2013-06-22 13:45:00,92.9,19.8,29.72,South,178,8.0,10.0,7,0.00,,,0.00,Wunderground v.1.15,2013-06-22 20:45:00,
2013-06-22 13:50:00,92.7,19.6,29.72,SE,138,8.0,14.0,7,0.00,,,0.00,Wunderground v.1.15,2013-06-22 20:50:00,
2013-06-22 14:00:00,91.6,15.2,29.72,WSW,241,11.0,13.0,6,0.00,,,0.00,Wunderground v.1.15,2013-06-22 21:00:00,
2013-06-22 14:05:00,91.6,18.8,29.71,WSW,245,10.0,13.0,7,0.00,,,0.00,Wunderground v.1.15,2013-06-22 21:05:00,
2013-06-22 14:15:00,91.6,15.2,29.71,SE,145,9.0,14.0,6,0.00,,,0.00,Wunderground v.1.15,2013-06-22 21:15:00,
2013-06-22 14:20:00,91.2,15.0,29.71,SSE,150,12.0,12.0,6,0.00,,,0.00,Wunderground v.1.15,2013-06-22 21:20:00,
2013-06-22 14:25:00,90.5,18.0,29.71,SE,136,14.0,14.0,7,0.00,,,0.00,Wunderground v.1.15,2013-06-22 21:25:00,
2013-06-22 14:35:00,91.0,14.8,29.71,SSW,192,10.0,13.0,6,0.00,,,0.00,Wunderground v.1.15,2013-06-22 21:35:00,
2013-06-22 14:40:00,91.4,18.7,29.71,SSW,201,8.0,8.0,7,0.00,,,0.00,Wunderground v.1.15,2013-06-22 21:40:00,
2013-06-22 14:45:00,91.4,18.7,29.71,WSW,240,8.0,9.0,7,0.00,,,0.00,Wunderground v.1.15,2013-06-22 21:45:00,
2013-06-22 14:50:00,90.7,18.2,29.71,SE,142,8.0,11.0,7,0.00,,,0.00,Wunderground v.1.15,2013-06-22 21:50:00,
2013-06-22 14:55:00,90.7,18.2,29.71,SSE,157,10.0,11.0,7,0.00,,,0.00,Wunderground v.1.15,2013-06-22 21:55:00,
2013-06-22 15:05:00,91.6,18.8,29.69,SSE,149,9.0,10.0,7,0.00,,,0.00,Wunderground v.1.15,2013-06-22 22:05:00,
2013-06-22 15:15:00,92.5,19.5,29.70,WSW,240,9.0,12.0,7,0.00,,,0.00,Wunderground v.1.15,2013-06-22 22:15:00,
2013-06-22 15:20:00,93.2,16.4,29.70,SE,141,7.0,10.0,6,0.00,,,0.00,Wunderground v.1.15,2013-06-22 22:20:00,
2013-06-22 15:25:00,92.3,19.3,29.69,SSE,159,9.0,10.0,7,0.00,,,0.00,Wunderground v.1.15,2013-06-22 22:25:00,
2013-06-22 15:30:00,92.1,19.2,29.69,SE,141,11.0,11.0,7,0.00,,,0.00,Wunderground v.1.15,2013-06-22 22:30:00,
2013-06-22 15:40:00,92.7,19.6,29.69,SW,230,6.0,11.0,7,0.00,,,0.00,Wunderground v.1.15,2013-06-22 22:40:00,
2013-06-22 15:45:00,91.8,19.0,29.68,SW,233,6.0,11.0,7,0.00,,,0.00,Wunderground v.1.15,2013-06-22 22:45:00,
2013-06-22 15:50:00,91.8,19.0,29.69,South,169,8.0,8.0,7,0.00,,,0.00,Wunderground v.1.15,2013-06-22 22:50:00,
2013-06-22 15:55:00,91.0,21.5,29.68,SE,132,9.0,9.0,8,0.00,,,0.00,Wunderground v.1.15,2013-06-22 22:55:00,
2013-06-22 16:00:00,91.6,22.0,29.68,SSE,166,8.0,8.0,8,0.00,,,0.00,Wunderground v.1.15,2013-06-22 23:00:00,
2013-06-22 16:05:00,91.6,18.8,29.67,South,191,7.0,10.0,7,0.00,,,0.00,Wunderground v.1.15,2013-06-22 23:05:00,
2013-06-22 16:15:00,91.2,21.7,29.68,South,184,8.0,8.0,8,0.00,,,0.00,Wunderground v.1.15,2013-06-22 23:15:00,
2013-06-22 16:20:00,91.4,21.8,29.68,South,178,7.0,7.0,8,0.00,,,0.00,Wunderground v.1.15,2013-06-22 23:20:00,
2013-06-22 16:30:00,91.4,21.8,29.67,SSE,158,8.0,9.0,8,0.00,,,0.00,Wunderground v.1.15,2013-06-22 23:30:00,
2013-06-22 16:35:00,91.8,22.1,29.67,SSE,157,7.0,9.0,8,0.00,,,0.00,Wunderground v.1.15,2013-06-22 23:35:00,
2013-06-22 16:40:00,92.5,22.6,29.66,SSE,164,5.0,5.0,8,0.00,,,0.00,Wunderground v.1.15,2013-06-22 23:40:00,
2013-06-22 16:45:00,91.8,22.1,29.67,WSW,245,5.0,10.0,8,0.00,,,0.00,Wunderground v.1.15,2013-06-22 23:45:00,
2013-06-22 16:50:00,91.6,22.0,29.66,South,176,7.0,7.0,8,0.00,,,0.00,Wunderground v.1.15,2013-06-22 23:50:00,
2013-06-22 16:55:00,91.4,21.8,29.67,South,186,7.0,7.0,8,0.00,,,0.00,Wunderground v.1.15,2013-06-22 23:55:00,
2013-06-22 17:00:00,91.0,21.5,29.67,SE,128,7.0,20.0,8,0.00,,,0.00,Wunderground v.1.15,2013-06-23 00:00:00,
2013-06-22 17:05:00,90.3,21.0,29.66,SSE,158,7.0,20.0,8,0.00,,,0.00,Wunderground v.1.15,2013-06-23 00:05:00,
2013-06-22 17:15:00,91.0,21.5,29.66,SSE,156,5.0,9.0,8,0.00,,,0.00,Wunderground v.1.15,2013-06-23 00:15:00,
2013-06-22 17:20:00,91.2,21.7,29.66,South,173,5.0,5.0,8,0.00,,,0.00,Wunderground v.1.15,2013-06-23 00:20:00,
2013-06-22 17:25:00,91.0,21.5,29.66,South,171,4.0,5.0,8,0.00,,,0.00,Wunderground v.1.15,2013-06-23 00:25:00,
2013-06-22 17:30:00,90.7,21.3,29.65,South,169,5.0,13.0,8,0.00,,,0.00,Wunderground v.1.15,2013-06-23 00:30:00,
2013-06-22 17:35:00,90.1,20.9,29.66,South,182,7.0,13.0,8,0.00,,,0.00,Wunderground v.1.15,2013-06-23 00:35:00,
2013-06-22 17:45:00,89.7,20.6,29.66,SSW,194,7.0,7.0,8,0.00,,,0.00,Wunderground v.1.15,2013-06-23 00:45:00,
2013-06-22 17:50:00,89.9,20.7,29.66,SSW,192,7.0,7.0,8,0.00,,,0.00,Wunderground v.1.15,2013-06-23 00:50:00,
2013-06-22 18:00:00,89.0,22.8,29.66,SE,138,7.0,7.0,9,0.00,,,0.00,Wunderground v.1.15,2013-06-23 01:00:00,
2013-06-22 18:05:00,89.0,22.8,29.66,South,178,8.0,16.0,9,0.00,,,0.00,Wunderground v.1.15,2013-06-23 01:05:00,
2013-06-22 18:15:00,89.0,22.8,29.67,SSW,209,7.0,9.0,9,0.00,,,0.00,Wunderground v.1.15,2013-06-23 01:15:00,
2013-06-22 18:20:00,88.6,22.5,29.66,WSW,246,7.0,7.0,9,0.00,,,0.00,Wunderground v.1.15,2013-06-23 01:20:00,
2013-06-22 18:25:00,88.4,22.4,29.67,South,176,7.0,7.0,9,0.00,,,0.00,Wunderground v.1.15,2013-06-23 01:25:00,
2013-06-22 18:30:00,88.2,22.2,29.67,SE,146,6.0,7.0,9,0.00,,,0.00,Wunderground v.1.15,2013-06-23 01:30:00,
2013-06-22 18:35:00,88.0,22.1,29.66,SSE,157,7.0,7.0,9,0.00,,,0.00,Wunderground v.1.15,2013-06-23 01:35:00,
2013-06-22 18:40:00,88.0,22.1,29.66,SSE,157,5.0,5.0,9,0.00,,,0.00,Wunderground v.1.15,2013-06-23 01:40:00,
2013-06-22 18:50:00,87.0,23.8,29.66,South,169,8.0,8.0,10,0.00,,,0.00,Wunderground v.1.15,2013-06-23 01:50:00,
2013-06-22 18:55:00,86.5,23.4,29.66,SSE,151,6.0,8.0,10,0.00,,,0.00,Wunderground v.1.15,2013-06-23 01:55:00,
2013-06-22 19:00:00,86.1,23.1,29.66,SSE,152,5.0,5.0,10,0.00,,,0.00,Wunderground v.1.15,2013-06-23 02:00:00,
2013-06-22 19:05:00,85.9,23.0,29.67,SSE,150,6.0,6.0,10,0.00,,,0.00,Wunderground v.1.15,2013-06-23 02:05:00,
2013-06-22 19:15:00,85.9,23.0,29.67,SSE,165,6.0,7.0,10,0.00,,,0.00,Wunderground v.1.15,2013-06-23 02:15:00,
2013-06-22 19:25:00,85.3,24.8,29.67,South,185,3.0,5.0,11,0.00,,,0.00,Wunderground v.1.15,2013-06-23 02:25:00,
2013-06-22 19:30:00,85.1,22.4,29.67,South,185,3.0,3.0,10,0.00,,,0.00,Wunderground v.1.15,2013-06-23 02:30:00,
2013-06-22 19:35:00,85.1,24.7,29.67,SSE,151,4.0,4.0,11,0.00,,,0.00,Wunderground v.1.15,2013-06-23 02:35:00,
2013-06-22 19:40:00,84.9,22.2,29.67,SSE,153,4.0,7.0,10,0.00,,,0.00,Wunderground v.1.15,2013-06-23 02:40:00,
2013-06-22 19:45:00,84.7,22.1,29.67,SW,229,5.0,7.0,10,0.00,,,0.00,Wunderground v.1.15,2013-06-23 02:45:00,
2013-06-22 19:55:00,84.5,21.9,29.67,SW,225,3.0,5.0,10,0.00,,,0.00,Wunderground v.1.15,2013-06-23 02:55:00,
2013-06-22 20:00:00,84.1,21.6,29.67,SW,225,2.0,3.0,10,0.00,,,0.00,Wunderground v.1.15,2013-06-23 03:00:00,
2013-06-22 20:05:00,83.6,21.2,29.67,SSW,211,2.0,4.0,10,0.00,,,0.00,Wunderground v.1.15,2013-06-23 03:05:00,
2013-06-22 20:15:00,83.6,21.2,29.68,SSW,206,3.0,4.0,10,0.00,,,0.00,Wunderground v.1.15,2013-06-23 03:15:00,
2013-06-22 20:20:00,83.4,18.6,29.68,SSW,213,2.0,6.0,9,0.00,,,0.00,Wunderground v.1.15,2013-06-23 03:20:00,
2013-06-22 20:30:00,83.2,18.5,29.68,WSW,255,5.0,14.0,9,0.00,,,0.00,Wunderground v.1.15,2013-06-23 03:30:00,
2013-06-22 20:35:00,83.8,18.9,29.69,WSW,258,6.0,14.0,9,0.00,,,0.00,Wunderground v.1.15,2013-06-23 03:35:00,
2013-06-22 20:40:00,83.8,18.9,29.69,WSW,241,6.0,14.0,9,0.00,,,0.00,Wunderground v.1.15,2013-06-23 03:40:00,
2013-06-22 20:45:00,84.1,19.1,29.68,SSW,213,5.0,14.0,9,0.00,,,0.00,Wunderground v.1.15,2013-06-23 03:45:00,
2013-06-22 20:50:00,83.8,18.9,29.69,SSW,211,5.0,5.0,9,0.00,,,0.00,Wunderground v.1.15,2013-06-23 03:50:00,
2013-06-22 21:00:00,83.4,18.6,29.70,South,178,5.0,5.0,9,0.00,,,0.00,Wunderground v.1.15,2013-06-23 04:00:00,
2013-06-22 21:05:00,83.2,18.5,29.70,WSW,257,6.0,7.0,9,0.00,,,0.00,Wunderground v.1.15,2013-06-23 04:05:00,
2013-06-22 21:15:00,82.4,17.9,29.70,SSW,195,4.0,7.0,9,0.00,,,0.00,Wunderground v.1.15,2013-06-23 04:15:00,
2013-06-22 21:20:00,82.2,17.7,29.70,SSW,198,4.0,4.0,9,0.00,,,0.00,Wunderground v.1.15,2013-06-23 04:20:00,
2013-06-22 21:25:00,82.4,17.9,29.70,SSW,198,4.0,4.0,9,0.00,,,0.00,Wunderground v.1.15,2013-06-23 04:25:00,
2013-06-22 21:30:00,82.2,20.2,29.70,SSW,205,3.0,3.0,10,0.00,,,0.00,Wunderground v.1.15,2013-06-23 04:30:00,
2013-06-22 21:35:00,82.2,20.2,29.70,SSW,205,3.0,3.0,10,0.00,,,0.00,Wunderground v.1.15,2013-06-23 04:35:00,
2013-06-22 21:40:00,81.8,22.1,29.70,SSW,204,3.0,3.0,11,0.00,,,0.00,Wunderground v.1.15,2013-06-23 04:40:00,
2013-06-22 21:45:00,81.4,19.6,29.70,SSW,204,3.0,3.0,10,0.00,,,0.00,Wunderground v.1.15,2013-06-23 04:45:00,
2013-06-22 21:50:00,81.1,19.3,29.70,SSW,204,1.0,1.0,10,0.00,,,0.00,Wunderground v.1.15,2013-06-23 04:50:00,
2013-06-22 21:55:00,80.9,21.4,29.70,SSW,204,1.0,1.0,11,0.00,,,0.00,Wunderground v.1.15,2013-06-23 04:55:00,
2013-06-22 22:05:00,79.6,22.5,29.71,SSW,204,1.0,1.0,12,0.00,,,0.00,Wunderground v.1.15,2013-06-23 05:05:00,
2013-06-22 22:15:00,80.9,23.5,29.71,West,273,3.0,5.0,12,0.00,,,0.00,Wunderground v.1.15,2013-06-23 05:15:00,
2013-06-22 22:20:00,80.5,23.2,29.71,West,273,2.0,2.0,12,0.00,,,0.00,Wunderground v.1.15,2013-06-23 05:20:00,
2013-06-22 22:25:00,79.9,24.6,29.71,West,273,1.0,2.0,13,0.00,,,0.00,Wunderground v.1.15,2013-06-23 05:25:00,
2013-06-22 22:30:00,79.2,24.1,29.71,West,273,2.0,2.0,13,0.00,,,0.00,Wunderground v.1.15,2013-06-23 05:30:00,
2013-06-22 22:40:00,79.8,26.3,29.71,SE,140,3.0,8.0,14,0.00,,,0.00,Wunderground v.1.15,2013-06-23 05:40:00,
2013-06-22 22:45:00,80.3,26.7,29.71,SE,145,4.0,8.0,14,0.00,,,0.00,Wunderground v.1.15,2013-06-23 05:45:00,
2013-06-22 22:50:00,79.9,26.4,29.71,SE,145,3.0,5.0,14,0.00,,,0.00,Wunderground v.1.15,2013-06-23 05:50:00,
2013-06-22 22:55:00,79.4,26.0,29.72,SE,145,3.0,5.0,14,0.00,,,0.00,Wunderground v.1.15,2013-06-23 05:55:00,
2013-06-22 23:00:00,78.8,27.2,29.72,SE,146,3.0,3.0,15,0.00,,,0.00,Wunderground v.1.15,2013-06-23 06:00:00,
2013-06-22 23:05:00,78.6,27.1,29.72,SSE,148,3.0,3.0,15,0.00,,,0.00,Wunderground v.1.15,2013-06-23 06:05:00,
2013-06-22 23:15:00,77.9,26.5,29.72,SSE,148,2.0,5.0,15,0.00,,,0.00,Wunderground v.1.15,2013-06-23 06:15:00,
2013-06-22 23:20:00,78.3,26.8,29.72,WSW,249,4.0,4.0,15,0.00,,,0.00,Wunderground v.1.15,2013-06-23 06:20:00,
2013-06-22 23:25:00,78.8,27.2,29.72,WSW,248,4.0,4.0,15,0.00,,,0.00,Wunderground v.1.15,2013-06-23 06:25:00,
2013-06-22 23:30:00,78.6,27.1,29.72,WSW,248,3.0,3.0,15,0.00,,,0.00,Wunderground v.1.15,2013-06-23 06:30:00,
2013-06-22 23:35:00,78.1,28.2,29.72,WSW,248,2.0,3.0,16,0.00,,,0.00,Wunderground v.1.15,2013-06-23 06:35:00,
2013-06-22 23:45:00,77.4,29.1,29.72,WSW,248,3.0,4.0,17,0.00,,,0.00,Wunderground v.1.15,2013-06-23 06:45:00,
2013-06-22 23:50:00,77.0,28.8,29.72,WSW,248,2.0,3.0,17,0.00,,,0.00,Wunderground v.1.15,2013-06-23 06:50:00,
2013-06-22 23:55:00,77.6,29.3,29.72,SW,223,4.0,8.0,17,0.00,,,0.00,Wunderground v.1.15,2013-06-23 06:55:00,